Location: Rounton
(54.4000°N, 1.3500°W)
Time: 08:54:25
(UTC+00:00)

Tiros 1 despin weight - Pass Details

Date: 07 December 2021
Orbit: 592 x 641 km, 48.2° (Epoch: 19 January)

Event Time Altitude Azimuth Distance (km) Brightness Sun altitude
Rises 12:47:05 0° 227° (SW) 2,839 ? 12.2°
Reaches altitude 10° 12:49:40 10° 214° (SW) 1,931 ? 12.1°
Maximum altitude 12:53:18 25° 159° (SSE) 1,204 ? 12.0°
Drops below altitude 10° 12:56:55 10° 103° (ESE) 1,924 ? 11.9°
Sets 12:59:29 0° 91° (E) 2,826 ? 11.8°
